Regional Weather Roundup
Issued by NWS

Home | Current Version | Previous Version | Graphics & Text | Print | Product List | Glossary On
Versions: 1 2 3 4 5 6 7 8 9 10 11 12 13 14 15 16 17 18 19 20 21 22 23 24 25 26 27 28 29 30 31 32 33 34 35 36 37 38 39 40 41 42 43 44 45 46 47 48 49 50
000
ASUS43 KFSD 180502
RWRSD

WEATHER ROUNDUP FOR SOUTH DAKOTA
NATIONAL WEATHER SERVICE SIOUX FALLS SD
1200 AM CDT FRI AUG 18 2017

NOTE: "FAIR" INDICATES FEW OR NO CLOUDS BELOW 12,000 FEET WITH NO
SIGNIFICANT WEATHER AND/OR OBSTRUCTIONS TO VISIBILITY.


SDZ001>005-009-010-012>017-180600-
NORTHWEST AND NORTH CENTRAL SOUTH DAKOTA

CITY           SKY/WX    TMP DP  RH WIND       PRES   REMARKS
BUFFALO          N/A     62  44  51 W7        29.90R
FAITH            N/A     66  48  52 W14       29.92R
MOBRIDGE       CLOUDY    67  61  81 S9        29.84S
$$

SDZ012>016-024>037-041>051-057-063-072>074-180600-
SOUTHWEST AND SOUTH CENTRAL SOUTH DAKOTA

CITY           SKY/WX    TMP DP  RH WIND       PRES   REMARKS
RAPID CTY ARPT CLEAR     61  50  67 NW13      29.98S
PIERRE         PTCLDY    68  58  70 SE5       29.87S
CUSTER         CLOUDY    57  40  52 W3        30.15R
ELLSWORTH AFB  CLEAR     59  50  71 W9        29.97F
PHILIP         CLEAR     64  52  64 W7        29.91R
PINE RIDGE     CLEAR     56  53  90 S5        30.00R
SPEARFISH      FAIR      63  43  48 W3        30.04S
WINNER         FAIR      66  59  78 S10       29.91S
$$

SDZ004>011-016>023-039-040-180600-
NORTHEAST SOUTH DAKOTA

CITY           SKY/WX    TMP DP  RH WIND       PRES   REMARKS
ABERDEEN       MOCLDY    65  62  90 CALM      29.87F
WATERTOWN      CLOUDY    66  62  87 SE8       29.90F
BROOKINGS      LGT RAIN  66  60  81 W9        29.98R
SISSETON         N/A     61  60  97 SW5       29.87S
$$

SDZ017-020-022-023-036>040-048>070-180600-
SOUTHEAST SOUTH DAKOTA

CITY           SKY/WX    TMP DP  RH WIND       PRES   REMARKS
SIOUX FALLS    CLOUDY    64  62  93 CALM      29.91R
HURON          CLOUDY    64  54  69 SE10      29.89F
CHAMBERLAIN    DRIZZLE   66  64  91 E8        29.92R
MITCHELL       LGT RAIN  66  61  84 E8        29.92F
YANKTON        CLOUDY    68  61  78 E7        29.89S
$$

ABBREVIATIONS USED IN REMARKS
   TC - TEMPERATURE IN CELSIUS
  WCI - WIND CHILL INDEX
   HX - HEAT INDEX
  VSB - VISIBILITY





USA.gov is the U.S. government's official web portal to all federal, state and local government web resources and services.